Centralia, IL

6:11 AM CST on February 09, 2016 (GMT -0600)
Centralia Municipal

Weather History for KENL - March, 2013

Change the Weather History Date:

Tuesday, March 19, 2013

  Actual Average (KSLO) Record (KSLO)
Temperature  
Mean Temperature 38 °F -  
Max Temperature 45 °F 55 °F 81 °F (2012)
Min Temperature 31 °F 35 °F 11 °F (1965)
Degree Days  
Heating Degree Days 27    
Moisture  
Dew Point 23 °F    
Average Humidity 56    
Maximum Humidity 80    
Minimum Humidity 33    
Precipitation  
Precipitation 0.00 in - - ()
Sea Level Pressure  
Sea Level Pressure 30.14 in    
Wind  
Wind Speed 10 mph (West)    
Max Wind Speed 16 mph    
Max Gust Speed 25 mph    
Visibility 10 miles    
Events      
Averages and records for this station are not official NWS values.
T = Trace of Precipitation, MM = Missing Value Source: NWS Daily Summary

Daily Weather History Graph

Daily Weather History Graph

Search for Another Location

Airport or City:

Trip Planner

Search our weather history database for the weather conditions in past years. The results will help you decide how hot, cold, wet, or windy it might be!

Date:

Astronomy

Mar. 19, 2013 Rise Set
Actual Time 7:00 AM CDT 7:07 PM CDT
Civil Twilight 6:34 AM CDT 7:34 PM CDT
Nautical Twilight 6:03 AM CDT 8:04 PM CDT
Astronomical Twilight 5:32 AM CDT 8:36 PM CDT
Moon 11:55 AM CDT (3/19) 1:50 AM CDT (3/19)
Length of Visible Light 12h 59m
Length of Day
12h 06m
Waxing Crescent, 50% of the Moon is Illuminated
Mar 19
Waxing Crescent
Mar 19
First Quarter
Mar 27
Full
Apr 2
Last Quarter
Apr 10
New

Hourly Weather History & Observations

Time (CDT) Temp. Windchill Dew Point Humidity Pressure Visibility Wind Dir Wind Speed Gust Speed Precip Events Conditions
12:15 AM 38.5 °F 30.7 °F 27.7 °F 65% 29.99 in 10.0 mi NW 12.7 mph - N/A   Clear
12:35 AM 37.4 °F 29.8 °F 27.5 °F 67% 30.00 in 10.0 mi NW 11.5 mph - N/A   Clear
12:55 AM 36.7 °F 28.9 °F 27.1 °F 68% 30.01 in 10.0 mi WNW 11.5 mph 17.3 mph N/A   Clear
1:15 AM 36.5 °F 27.4 °F 25.3 °F 64% 30.02 in 10.0 mi WNW 15.0 mph 20.7 mph N/A   Clear
1:35 AM 36.0 °F 28.5 °F 25.5 °F 66% 30.02 in 10.0 mi WNW 10.4 mph - N/A   Clear
1:55 AM 35.1 °F 25.5 °F 21.2 °F 57% 30.03 in 10.0 mi WNW 15.0 mph 25.3 mph N/A   Clear
2:15 AM 34.3 °F 25.9 °F 21.0 °F 58% 30.03 in 10.0 mi WNW 11.5 mph 18.4 mph N/A   Clear
2:35 AM 33.8 °F 26.4 °F 21.2 °F 60% 30.04 in 10.0 mi West 9.2 mph - N/A   Clear
2:55 AM 33.6 °F 26.2 °F 21.2 °F 60% 30.04 in 10.0 mi WNW 9.2 mph - N/A   Clear
3:15 AM 33.1 °F 25.5 °F 20.3 °F 59% 30.05 in 10.0 mi West 9.2 mph - N/A   Clear
3:35 AM 32.9 °F 25.9 °F 20.5 °F 60% 30.05 in 10.0 mi West 8.1 mph - N/A   Clear
3:55 AM 32.0 °F 26.4 °F 21.4 °F 65% 30.05 in 10.0 mi West 5.8 mph - N/A   Clear
4:15 AM 32.0 °F 24.2 °F 21.4 °F 65% 30.05 in 10.0 mi WSW 9.2 mph - N/A   Clear
4:35 AM 31.6 °F 25.1 °F 22.1 °F 68% 30.05 in 10.0 mi WSW 6.9 mph - N/A   Clear
4:55 AM 32.0 °F 25.6 °F 21.4 °F 65% 30.05 in 10.0 mi West 6.9 mph - N/A   Clear
5:15 AM 32.0 °F 24.8 °F 21.7 °F 66% 30.05 in 10.0 mi West 8.1 mph - N/A   Clear
5:35 AM 32.0 °F 25.6 °F 21.7 °F 66% 30.06 in 10.0 mi West 6.9 mph - N/A   Clear
5:55 AM 32.0 °F 23.6 °F 21.7 °F 66% 30.07 in 10.0 mi West 10.4 mph - N/A   Clear
6:15 AM 32.0 °F 23.6 °F 21.2 °F 64% 30.07 in 10.0 mi West 10.4 mph - N/A   Clear
6:35 AM 32.0 °F 24.8 °F 21.6 °F 65% 30.07 in 10.0 mi West 8.1 mph - N/A   Clear
6:55 AM 32.0 °F 23.0 °F 20.8 °F 63% 30.08 in 10.0 mi West 11.5 mph - N/A   Clear
7:15 AM 32.2 °F 23.2 °F 19.9 °F 61% 30.08 in 10.0 mi West 11.5 mph - N/A   Clear
7:35 AM 32.0 °F 24.8 °F 21.4 °F 65% 30.09 in 10.0 mi West 8.1 mph - N/A   Clear
7:55 AM 32.4 °F 24.0 °F 21.0 °F 63% 30.10 in 10.0 mi West 10.4 mph - N/A   Clear
8:15 AM 32.9 °F 23.7 °F 21.6 °F 63% 30.11 in 10.0 mi West 12.7 mph - N/A   Clear
8:35 AM 33.4 °F 25.4 °F 20.8 °F 60% 30.11 in 10.0 mi West 10.4 mph 16.1 mph N/A   Clear
8:55 AM 34.0 °F 26.0 °F 20.3 °F 57% 30.11 in 10.0 mi West 10.4 mph 16.1 mph N/A   Clear
9:15 AM 34.7 °F 25.1 °F 20.7 °F 57% 30.13 in 10.0 mi West 15.0 mph 18.4 mph N/A   Clear
9:35 AM 34.9 °F 26.6 °F 20.7 °F 56% 30.15 in 10.0 mi West 11.5 mph 20.7 mph N/A   Clear
9:55 AM 35.6 °F 27.1 °F 21.9 °F 58% 30.16 in 10.0 mi West 12.7 mph 19.6 mph N/A   Clear
10:15 AM 36.0 °F 26.7 °F 21.2 °F 55% 30.17 in 10.0 mi West 15.0 mph - N/A   Clear
10:35 AM 36.5 °F 27.0 °F 21.4 °F 54% 30.18 in 10.0 mi West 16.1 mph - N/A   Clear
10:55 AM 37.6 °F 28.4 °F 22.8 °F 55% 30.20 in 10.0 mi West 16.1 mph 19.6 mph N/A   Clear
11:15 AM 38.1 °F 30.2 °F 21.9 °F 52% 30.20 in 10.0 mi West 12.7 mph - N/A   Clear
11:35 AM 39.0 °F 31.0 °F 22.6 °F 52% 30.20 in 10.0 mi West 13.8 mph 21.9 mph N/A   Clear
11:55 AM 39.6 °F 31.7 °F 22.8 °F 51% 30.20 in 10.0 mi West 13.8 mph 20.7 mph N/A   Clear
12:15 PM 40.6 °F 32.3 °F 22.5 °F 48% 30.20 in 10.0 mi West 16.1 mph 20.7 mph N/A   Clear
12:35 PM 40.5 °F 33.2 °F 22.1 °F 48% 30.21 in 10.0 mi West 12.7 mph 20.7 mph N/A   Clear
12:55 PM 41.2 °F 35.0 °F 21.2 °F 45% 30.21 in 10.0 mi West 10.4 mph 20.7 mph N/A   Clear
1:15 PM 42.1 °F 35.2 °F 22.8 °F 46% 30.21 in 10.0 mi West 12.7 mph 17.3 mph N/A   Clear
1:35 PM 42.6 °F 36.3 °F 21.6 °F 43% 30.21 in 10.0 mi West 11.5 mph 16.1 mph N/A   Clear
1:55 PM 43.2 °F 37.0 °F 22.6 °F 44% 30.20 in 10.0 mi West 11.5 mph 17.3 mph N/A   Clear
2:15 PM 43.9 °F 37.9 °F 23.7 °F 45% 30.19 in 10.0 mi West 11.5 mph 16.1 mph N/A   Clear
2:35 PM 44.6 °F 38.8 °F 24.4 °F 45% 30.19 in 10.0 mi West 11.5 mph 17.3 mph N/A   Unknown
2:55 PM 45.0 °F 38.9 °F 22.1 °F 40% 30.19 in 10.0 mi WNW 12.7 mph 21.9 mph N/A   Unknown
3:15 PM 45.0 °F 38.9 °F 18.9 °F 35% 30.19 in 10.0 mi WNW 12.7 mph 18.4 mph N/A   Clear
3:35 PM 45.3 °F 41.1 °F 20.1 °F 37% 30.18 in 10.0 mi NW 8.1 mph - N/A   Clear
3:55 PM 45.7 °F 41.5 °F 23.4 °F 41% 30.18 in 10.0 mi WNW 8.1 mph - N/A   Clear
4:15 PM 45.5 °F 40.8 °F 21.9 °F 39% 30.18 in 10.0 mi WNW 9.2 mph 16.1 mph N/A   Clear
4:35 PM 45.7 °F 40.6 °F 20.8 °F 37% 30.19 in 10.0 mi WNW 10.4 mph - N/A   Clear
4:55 PM 45.5 °F 40.8 °F 20.1 °F 36% 30.19 in 10.0 mi WNW 9.2 mph - N/A   Clear
5:15 PM 45.3 °F 41.1 °F 20.3 °F 37% 30.19 in 10.0 mi WNW 8.1 mph - N/A   Clear
5:35 PM 45.5 °F 42.5 °F 23.2 °F 41% 30.19 in 10.0 mi WNW 5.8 mph - N/A   Clear
5:55 PM 45.0 °F 41.8 °F 17.6 °F 33% 30.19 in 10.0 mi WNW 5.8 mph - N/A   Clear
6:15 PM 44.8 °F 41.0 °F 18.5 °F 35% 30.19 in 10.0 mi WNW 6.9 mph - N/A   Clear
6:35 PM 44.2 °F 41.8 °F 21.0 °F 40% 30.20 in 10.0 mi West 4.6 mph - N/A   Clear
6:55 PM 43.3 °F 39.2 °F 24.6 °F 48% 30.20 in 10.0 mi West 6.9 mph - N/A   Clear
7:15 PM 42.4 °F 39.6 °F 26.8 °F 54% 30.20 in 10.0 mi West 4.6 mph - N/A   Clear
7:35 PM 41.9 °F 39.0 °F 25.9 °F 53% 30.20 in 10.0 mi West 4.6 mph - N/A   Clear
7:55 PM 41.5 °F - 26.1 °F 54% 30.20 in 10.0 mi Calm Calm - N/A   Clear
8:15 PM 41.0 °F - 23.0 °F 49% 30.19 in 10.0 mi Calm Calm - N/A   Clear
8:35 PM 40.5 °F - 24.4 °F 53% 30.19 in 10.0 mi Calm Calm - N/A   Clear
8:55 PM 40.3 °F - 23.2 °F 51% 30.19 in 10.0 mi Calm Calm - N/A   Clear
9:15 PM 39.2 °F 37.0 °F 23.0 °F 52% 30.19 in 10.0 mi SW 3.5 mph - N/A   Clear
9:35 PM 35.8 °F - 27.3 °F 71% 30.19 in 10.0 mi Calm Calm - N/A   Clear
9:55 PM 34.3 °F 31.4 °F 28.8 °F 80% 30.19 in 10.0 mi SW 3.5 mph - N/A   Clear
10:15 PM 34.0 °F 31.0 °F 26.6 °F 74% 30.19 in 10.0 mi SW 3.5 mph - N/A   Clear
10:35 PM 32.7 °F 28.3 °F 26.4 °F 78% 30.18 in 10.0 mi WSW 4.6 mph - N/A   Clear
10:55 PM 33.6 °F 29.4 °F 24.8 °F 70% 30.18 in 10.0 mi WSW 4.6 mph - N/A   Clear
11:15 PM 33.8 °F 28.6 °F 25.7 °F 72% 30.18 in 10.0 mi SW 5.8 mph - N/A   Clear
11:35 PM 32.7 °F 28.3 °F 25.0 °F 73% 30.18 in 10.0 mi WSW 4.6 mph - N/A   Clear
11:55 PM 33.1 °F 27.7 °F 26.1 °F 75% 30.18 in 10.0 mi WSW 5.8 mph - N/A   Clear